Weather History for Platteville, WI

Change the Weather History Date:

Thursday, November 24, 2011

  Actual Average (KDBQ) Record (KDBQ)
Temperature  
Mean Temperature 44 °F 32 °F  
Max Temperature 51 °F 40 °F 63 °F (1931)
Min Temperature 37 °F 24 °F -4 °F (1950)
Degree Days  
Heating Degree Days 21 33  
Month to date heating degree days 640  
Since 1 July heating degree days 1289  
Cooling Degree Days 0 0  
Month to date cooling degree days 0  
Year to date cooling degree days 643  
Moisture  
Dew Point 40 °F    
Average Humidity 86    
Maximum Humidity 100    
Minimum Humidity 71    
Precipitation  
Precipitation 0.00 in 0.07 in 1.31 in (2009)
Month to date precipitation 1.89  
Year to date precipitation 33.99  
Snow  
Snow 0.00 in 0.20 in - ()
Month to date snowfall 1.7  
Since 1 July snowfall 1.7  
Since 1 September snowfall 1.7  
Snow Depth -    
Sea Level Pressure  
Sea Level Pressure 30.08 in    
Wind  
Wind Speed 13 mph (South)    
Max Wind Speed 21 mph    
Max Gust Speed 24 mph    
Visibility 5 miles    
Events      
T = Trace of Precipitation, MM = Missing Value Source: NWS Daily Summary

Daily Weather History Graph

Daily Weather History Graph

Search for Another Location

Airport:

Trip Planner

Search our weather history database for the weather conditions in past years. The results will help you decide how hot, cold, wet, or windy it might be!

Date:

Astronomy

Nov. 24, 2011 Rise Set
Actual Time 7:04 AM CST 4:32 PM CST
Civil Twilight 6:33 AM CST 5:03 PM CST
Nautical Twilight 5:58 AM CST 5:38 PM CST
Astronomical Twilight 5:24 AM CST 6:11 PM CST
Moon 6:22 AM CST (11/24) 4:02 PM CST (11/24)
Length of Visible Light 10h 30m
Length of Day
9h 28m
Waning Crescent, 0% of the Moon is Illuminated
Nov 24
Waning Crescent
Nov 25
New
Dec 2
First Quarter
Dec 10
Full
Dec 17
Last Quarter

Hourly Weather History & Observations

Time (CST) Temp. Windchill Dew Point Humidity Pressure Visibility Wind Dir Wind Speed Gust Speed Precip Events Conditions
12:15 AM 37.4 °F 28.9 °F 35.6 °F 93% 30.18 in 5.0 mi SW 13.8 mph - N/A   Overcast
12:35 AM 37.4 °F 28.9 °F 35.6 °F 93% 30.18 in 5.0 mi WSW 13.8 mph - N/A   Overcast
12:55 AM 37.4 °F 29.3 °F 35.6 °F 93% 30.18 in 5.0 mi SW 12.7 mph - N/A   Overcast
1:15 AM 37.4 °F 29.8 °F 35.6 °F 93% 30.16 in 5.0 mi SSW 11.5 mph - N/A   Overcast
1:35 AM 37.4 °F 30.3 °F 35.6 °F 93% 30.16 in 5.0 mi SW 10.4 mph - N/A   Overcast
1:55 AM 37.4 °F 29.8 °F 35.6 °F 93% 30.17 in 5.0 mi SSW 11.5 mph - N/A   Overcast
2:15 AM 37.4 °F 30.8 °F 35.6 °F 93% 30.17 in 5.0 mi SSW 9.2 mph - N/A   Overcast
2:35 AM 37.4 °F 30.8 °F 35.6 °F 93% 30.16 in 5.0 mi SSW 9.2 mph - N/A   Overcast
3:15 AM 37.4 °F 30.8 °F 35.6 °F 93% 30.16 in 3.0 mi South 9.2 mph - N/A   Overcast
3:35 AM 37.4 °F 30.3 °F 35.6 °F 93% 30.15 in 2.0 mi South 10.4 mph - N/A   Overcast
4:15 AM 39.2 °F 32.5 °F 37.4 °F 93% 30.14 in 1.5 mi SSW 10.4 mph - N/A   Overcast
4:35 AM 39.2 °F 32.5 °F 37.4 °F 93% 30.14 in 1.2 mi South 10.4 mph - N/A   Overcast
5:15 AM 39.2 °F 32.0 °F 37.4 °F 93% 30.14 in 0.8 mi SSW 11.5 mph - N/A   Overcast
5:35 AM 39.2 °F 32.5 °F 37.4 °F 93% 30.14 in 0.8 mi South 10.4 mph - N/A   Overcast
5:55 AM 41.0 °F 33.5 °F 37.4 °F 87% 30.13 in 0.8 mi South 13.8 mph - N/A   Overcast
6:15 AM 41.0 °F 33.9 °F 37.4 °F 87% 30.13 in 0.8 mi South 12.7 mph - N/A   Overcast
6:35 AM 41.0 °F 33.5 °F 37.4 °F 87% 30.13 in 0.5 mi SSW 13.8 mph - N/A   Overcast
6:55 AM 41.0 °F 33.1 °F 37.4 °F 87% 30.12 in 0.5 mi South 15.0 mph - N/A   Overcast
7:35 AM 41.0 °F 33.5 °F 39.2 °F 93% 30.13 in 0.2 mi South 13.8 mph - N/A   Overcast
7:55 AM 41.0 °F 32.8 °F 39.2 °F 93% 30.13 in 0.2 mi SSW 16.1 mph - N/A   Overcast
8:15 AM 41.0 °F 32.8 °F 39.2 °F 93% 30.13 in 0.2 mi SSW 16.1 mph - N/A   Overcast
8:35 AM 41.0 °F 33.1 °F 39.2 °F 93% 30.13 in 0.5 mi SSW 15.0 mph - N/A   Overcast
8:55 AM 41.0 °F 32.8 °F 39.2 °F 93% 30.13 in 0.5 mi South 16.1 mph - N/A   Overcast
9:15 AM 41.0 °F 32.8 °F 39.2 °F 93% 30.12 in 0.5 mi South 16.1 mph - N/A   Overcast
9:55 AM 41.0 °F 33.1 °F 41.0 °F 100% 30.12 in 0.8 mi South 15.0 mph - N/A   Overcast
10:15 AM 42.8 °F 34.8 °F 41.0 °F 93% 30.13 in 1.0 mi South 17.3 mph - N/A   Overcast
10:35 AM 42.8 °F 35.1 °F 41.0 °F 93% 30.11 in 1.0 mi South 16.1 mph - N/A   Overcast
10:55 AM 42.8 °F 35.1 °F 41.0 °F 93% 30.11 in 1.2 mi South 16.1 mph - N/A   Overcast
11:15 AM 42.8 °F 34.0 °F 41.0 °F 93% 30.11 in 1.8 mi South 20.7 mph - N/A   Overcast
11:35 AM 42.8 °F 34.8 °F 41.0 °F 93% 30.09 in 2.0 mi South 17.3 mph - N/A   Overcast
11:55 AM 42.8 °F 36.2 °F 41.0 °F 93% 30.08 in 2.0 mi South 12.7 mph - N/A   Overcast
12:15 PM 44.6 °F 37.4 °F 41.0 °F 87% 30.07 in 3.0 mi South 16.1 mph - N/A   Overcast
12:35 PM 44.6 °F 37.2 °F 41.0 °F 87% 30.05 in 4.0 mi South 17.3 mph - N/A   Overcast
12:55 PM 46.4 °F 40.4 °F 42.8 °F 87% 30.04 in 4.0 mi SSE 13.8 mph - N/A   Overcast
1:15 PM 48.2 °F - 42.8 °F 82% 30.04 in 5.0 mi South 15.0 mph - N/A   Mostly Cloudy
1:35 PM 50.0 °F - 42.8 °F 76% 30.03 in 7.0 mi South 19.6 mph 24.2 mph N/A   Scattered Clouds
2:15 PM 50.0 °F - 42.8 °F 76% 30.01 in 7.0 mi South 17.3 mph 24.2 mph N/A   Clear
2:35 PM 50.0 °F - 42.8 °F 76% 30.00 in 7.0 mi South 17.3 mph 20.7 mph N/A   Clear
2:55 PM 51.8 °F - 42.8 °F 71% 30.00 in 10.0 mi South 18.4 mph - N/A   Clear
3:15 PM 51.8 °F - 42.8 °F 71% 30.00 in 10.0 mi South 15.0 mph - N/A   Clear
3:35 PM 51.8 °F - 42.8 °F 71% 30.00 in 10.0 mi South 13.8 mph - N/A   Clear
3:55 PM 51.8 °F - 42.8 °F 71% 29.99 in 10.0 mi South 11.5 mph - N/A   Clear
4:15 PM 50.0 °F - 42.8 °F 76% 29.99 in 10.0 mi South 12.7 mph 16.1 mph N/A   Clear
4:35 PM 50.0 °F - 42.8 °F 76% 29.99 in 10.0 mi South 10.4 mph - N/A   Clear
4:55 PM 48.2 °F - 41.0 °F 76% 29.99 in 10.0 mi South 8.1 mph - N/A   Clear
5:15 PM 46.4 °F 41.5 °F 41.0 °F 81% 29.99 in 10.0 mi South 10.4 mph - N/A   Clear
5:35 PM 48.2 °F - 41.0 °F 76% 29.98 in 10.0 mi South 8.1 mph - N/A   Clear
5:55 PM 48.2 °F - 41.0 °F 76% 29.98 in 10.0 mi South 15.0 mph - N/A   Clear
6:15 PM 48.2 °F - 41.0 °F 76% 29.97 in 10.0 mi South 16.1 mph - N/A   Clear
6:35 PM 48.2 °F - 41.0 °F 76% 29.97 in 10.0 mi South 15.0 mph - N/A   Clear
6:55 PM 46.4 °F 40.4 °F 41.0 °F 81% 29.97 in 10.0 mi South 13.8 mph - N/A   Clear
7:35 PM 48.2 °F - 41.0 °F 76% 29.97 in 10.0 mi South 12.7 mph - N/A   Clear
7:55 PM 48.2 °F - 41.0 °F 76% 29.96 in 10.0 mi SSE 10.4 mph - N/A   Clear
8:15 PM 46.4 °F 42.4 °F 41.0 °F 81% 29.96 in 10.0 mi South 8.1 mph - N/A   Clear
8:35 PM 46.4 °F 41.5 °F 41.0 °F 81% 29.95 in 10.0 mi South 10.4 mph - N/A   Clear
8:55 PM 46.4 °F 42.4 °F 41.0 °F 81% 29.95 in 10.0 mi South 8.1 mph - N/A   Clear
9:15 PM 44.6 °F 39.7 °F 41.0 °F 87% 29.95 in 10.0 mi South 9.2 mph - N/A   Clear
9:35 PM 44.6 °F 38.1 °F 41.0 °F 87% 29.95 in 10.0 mi South 13.8 mph - N/A   Clear
9:55 PM 44.6 °F 37.4 °F 41.0 °F 87% 29.95 in 10.0 mi South 16.1 mph - N/A   Clear
10:15 PM 44.6 °F 37.8 °F 41.0 °F 87% 29.94 in 10.0 mi South 15.0 mph - N/A   Clear
10:35 PM 44.6 °F 37.4 °F 41.0 °F 87% 29.94 in 10.0 mi South 16.1 mph - N/A   Clear
11:15 PM 46.4 °F 40.1 °F 41.0 °F 81% 29.93 in 10.0 mi SSW 15.0 mph - N/A   Clear
11:35 PM 46.4 °F 39.2 °F 41.0 °F 81% 29.92 in 10.0 mi SSW 18.4 mph - N/A   Clear
11:55 PM 46.4 °F 40.1 °F 41.0 °F 81% 29.93 in 10.0 mi SSW 15.0 mph - N/A   Clear